TimeWEST,TemperatureF,Dew PointF,Humidity,Sea Level PressureIn,VisibilityMPH,Wind Direction,Wind SpeedMPH,Gust SpeedMPH,PrecipitationIn,Events,Conditions,WindDirDegrees,DateUTC
12:00 AM,68.0,64.4,88,30.12,6.2,North,6.9,-,N/A,,Partly Cloudy,350,2013-08-30 23:00:00
1:00 AM,68,64,83,30.09,6,North,3.5,,,,Partly Cloudy,350,2013-08-31 00:00:00
1:00 AM,68.0,64.4,88,30.12,6.2,North,3.5,-,N/A,,Partly Cloudy,350,2013-08-31 00:00:00
4:00 AM,63,60,87,30.10,,Calm,Calm,,,,,,2013-08-31 03:00:00
6:00 AM,60.8,59.0,94,30.12,6.2,WSW,3.5,-,N/A,,Partly Cloudy,250,2013-08-31 05:00:00
7:00 AM,61,59,89,30.12,6,WSW,3.5,,,,Scattered Clouds,250,2013-08-31 06:00:00
7:00 AM,60.8,59.0,94,30.15,6.2,WSW,3.5,-,N/A,,Partly Cloudy,250,2013-08-31 06:00:00
8:00 AM,66.2,64.4,94,30.15,6.2,Calm,Calm,-,N/A,,Partly Cloudy,0,2013-08-31 07:00:00
9:00 AM,69.8,64.4,83,30.15,6.2,Variable,1.2,-,N/A,,Scattered Clouds,0,2013-08-31 08:00:00
10:00 AM,74,62,58,30.10,9,NE,5.8,,,,Partly Cloudy,50,2013-08-31 09:00:00
10:00 AM,73.4,62.6,69,30.15,6.2,NE,5.8,-,N/A,,Scattered Clouds,50,2013-08-31 09:00:00
11:00 AM,75.2,60.8,61,30.15,6.2,NE,8.1,-,N/A,,Mostly Cloudy,40,2013-08-31 10:00:00
12:00 PM,77.0,60.8,57,30.15,6.2,NE,5.8,-,N/A,,Mostly Cloudy,50,2013-08-31 11:00:00
1:00 PM,81,61,40,30.05,9,NNE,10.4,,,,Mostly Cloudy,30,2013-08-31 12:00:00
1:00 PM,80.6,60.8,51,30.12,6.2,NNE,10.4,-,N/A,,Mostly Cloudy,30,2013-08-31 12:00:00
3:00 PM,82.4,62.6,51,30.09,6.2,NNE,15.0,-,N/A,,Mostly Cloudy,20,2013-08-31 14:00:00
3:44 PM,82,63,43,30.01,9,North,16.1,,,,Mostly Cloudy,0,2013-08-31 14:44:00
4:00 PM,82.4,62.6,51,30.09,6.2,North,17.3,-,N/A,,Scattered Clouds,10,2013-08-31 15:00:00
5:00 PM,80.6,62.6,54,30.09,6.2,North,17.3,-,N/A,,Scattered Clouds,360,2013-08-31 16:00:00
6:00 PM,77.0,64.4,65,30.12,6.2,North,17.3,-,N/A,,Scattered Clouds,10,2013-08-31 17:00:00
7:00 PM,75.2,62.6,65,30.12,6.2,North,16.1,-,N/A,,Scattered Clouds,10,2013-08-31 18:00:00
9:00 PM,71.6,62.6,73,30.15,6.2,NNW,5.8,-,N/A,,Partly Cloudy,330,2013-08-31 20:00:00
10:00 PM,69.8,62.6,78,30.15,6.2,North,5.8,-,N/A,,Partly Cloudy,360,2013-08-31 21:00:00
11:00 PM,68.0,62.6,83,30.18,6.2,Variable,2.3,-,N/A,,Partly Cloudy,0,2013-08-31 22:00:00